K4ZZR Weather Reports


time (UTC)temp
C
wind
direction
speed
KPH
gust
KPH
rain 1hr
cm
rain 24hr
cm
rain mn
cm
humidity
%
barometer
mb
20260507200042 31 160 9.7 17.7 0.00 0.00 0.00 70 1013.4
20260507195539 31 117 6.4 16.1 0.00 0.00 0.00 71 1013.5
20260507195037 30 111 11.3 11.3 0.00 0.00 0.00 71 1013.5
20260507194533 31 114 6.4 11.3 0.00 0.00 0.00 71 1013.4
20260507194029 31 107 8.0 9.7 0.00 0.00 0.00 70 1013.4
20260507193526 31 154 6.4 12.9 0.00 0.00 0.00 61 1013.5
20260507193023 30 275 3.2 9.7 0.00 0.00 0.00 68 1013.8
20260507192519 31 155 8.0 14.5 0.00 0.00 0.00 68 1013.7
20260507192016 31 166 3.2 11.3 0.00 0.00 0.00 65 1013.9
20260507191511 31 239 1.6 16.1 0.00 0.00 0.00 69 1013.8
20260507191009 31 8 4.8 12.9 0.00 0.00 0.00 68 1014.1
20260507190506 32 268 0.0 8.0 0.00 0.00 0.00 62 1014.0
20260507190006 31 179 4.8 8.0 0.00 0.00 0.00 68 1014.2
20260507185502 31 227 3.2 6.4 0.00 0.00 0.00 62 1014.1
20260507184959 31 305 6.4 9.7 0.00 0.00 0.00 68 1014.4
20260507184457 31 58 3.2 4.8 0.00 0.00 0.00 67 1014.6
20260507183955 31 127 4.8 17.7 0.00 0.00 0.00 68 1014.5
20260507183450 33 328 3.2 8.0 0.00 0.00 0.00 52 1014.7
20260507182948 32 247 8.0 17.7 0.00 0.00 0.00 55 1014.8
20260507182444 32 233 4.8 11.3 0.00 0.00 0.00 56 1014.7
20260507181940 31 233 3.2 4.8 0.00 0.00 0.00 58 1015.0
20260507181436 31 264 4.8 17.7 0.00 0.00 0.00 58 1014.9
20260507180933 32 230 11.3 17.7 0.00 0.00 0.00 55 1014.9
20260507180430 32 234 4.8 9.7 0.00 0.00 0.00 56 1014.6
20260507175926 32 273 4.8 12.9 0.00 0.00 0.00 57 1014.7
20260507175423 32 277 8.0 14.5 0.00 0.00 0.00 58 1014.7
20260507174921 31 310 4.8 17.7 0.00 0.00 0.00 60 1014.8
20260507174418 31 245 9.7 11.3 0.00 0.00 0.00 57 1014.6
20260507173915 31 164 6.4 9.7 0.00 0.00 0.00 57 1014.9
20260507173412 31 241 4.8 9.7 0.00 0.00 0.00 58 1014.7
20260507172908 31 274 3.2 12.9 0.00 0.00 0.00 61 1014.8
20260507172405 31 248 8.0 17.7 0.00 0.00 0.00 60 1015.2
20260507171901 31 216 11.3 16.1 0.00 0.00 0.00 62 1015.0
20260507171358 31 251 3.2 20.9 0.00 0.00 0.00 61 1015.1
20260507170855 30 238 9.7 19.3 0.00 0.00 0.00 61 1015.1
20260507170351 31 246 8.0 22.5 0.00 0.00 0.00 60 1015.2
20260507165848 31 220 8.0 11.3 0.00 0.00 0.00 60 1015.0
20260507165344 31 255 3.2 14.5 0.00 0.00 0.00 62 1015.1
20260507164840 31 187 8.0 11.3 0.00 0.00 0.00 61 1015.3
20260507164337 30 176 6.4 14.5 0.00 0.00 0.00 61 1015.2
20260507163834 30 225 3.2 14.5 0.00 0.00 0.00 62 1015.4
20260507163331 30 251 0.0 17.7 0.00 0.00 0.00 62 1015.6
20260507162828 30 248 19.3 19.3 0.00 0.00 0.00 63 1015.5
20260507162323 30 176 14.5 17.7 0.00 0.00 0.00 64 1015.5
20260507161820 30 234 6.4 17.7 0.00 0.00 0.00 66 1015.8
20260507161317 30 239 9.7 12.9 0.00 0.00 0.00 64 1015.7
20260507160814 30 210 6.4 12.9 0.00 0.00 0.00 64 1015.8
20260507160310 30 217 11.3 16.1 0.00 0.00 0.00 63 1016.0
20260507155806 30 195 4.8 12.9 0.00 0.00 0.00 64 1016.1
20260507155306 30 226 11.3 19.3 0.00 0.00 0.00 64 1016.1
20260507154758 30 194 4.8 12.9 0.00 0.00 0.00 63 1016.0
20260507154256 30 242 8.0 16.1 0.00 0.00 0.00 64 1016.0
20260507153752 29 271 6.4 14.5 0.00 0.00 0.00 65 1016.0
20260507153249 29 179 3.2 12.9 0.00 0.00 0.00 66 1016.1
20260507152746 29 198 4.8 12.9 0.00 0.00 0.00 66 1016.2
20260507152242 29 255 3.2 11.3 0.00 0.00 0.00 67 1016.1
20260507151738 28 245 6.4 16.1 0.00 0.00 0.00 68 1016.0
20260507151234 28 214 4.8 11.3 0.00 0.00 0.00 67 1016.2
20260507150731 29 208 6.4 14.5 0.00 0.00 0.00 65 1016.0
20260507150228 29 228 1.6 8.0 0.00 0.00 0.00 66 1016.2
20260507145724 28 259 4.8 12.9 0.00 0.00 0.00 67 1016.3
20260507145221 28 233 4.8 8.0 0.00 0.00 0.00 68 1016.3
20260507144718 28 208 6.4 12.9 0.00 0.00 0.00 69 1016.5
20260507144216 28 243 9.7 12.9 0.00 0.00 0.00 70 1016.4
20260507143712 28 252 3.2 8.0 0.00 0.00 0.00 72 1016.2
20260507143209 27 242 6.4 16.1 0.00 0.00 0.00 70 1016.3
20260507142705 27 235 11.3 17.7 0.00 0.00 0.00 70 1016.2
20260507142202 27 187 6.4 14.5 0.00 0.00 0.00 71 1016.2
20260507141658 27 314 4.8 11.3 0.00 0.00 0.00 74 1016.4
20260507141155 27 235 8.0 19.3 0.00 0.00 0.00 71 1016.5
20260507140651 27 237 8.0 20.9 0.00 0.00 0.00 74 1016.3
20260507140149 27 204 8.0 11.3 0.00 0.00 0.00 73 1016.7
20260507135646 27 228 9.7 22.5 0.00 0.00 0.00 75 1016.4
20260507135143 27 219 11.3 14.5 0.00 0.00 0.00 75 1016.4
20260507134639 26 234 6.4 17.7 0.00 0.00 0.00 77 1016.2
20260507134136 26 231 16.1 17.7 0.00 0.00 0.00 78 1016.5
20260507133632 26 226 9.7 19.3 0.00 0.00 0.00 80 1016.3
20260507133129 26 247 4.8 19.3 0.00 0.00 0.00 81 1016.5
20260507132626 26 212 3.2 11.3 0.00 0.00 0.00 81 1016.4
20260507132122 26 189 6.4 9.7 0.00 0.00 0.00 81 1016.3
20260507131619 26 209 4.8 9.7 0.00 0.00 0.00 82 1016.2
20260507131117 26 197 4.8 11.3 0.00 0.00 0.00 82 1016.6
20260507130613 25 169 9.7 12.9 0.00 0.00 0.00 83 1016.4
20260507130111 26 209 8.0 9.7 0.00 0.00 0.00 83 1016.3
20260507125610 25 184 3.2 14.5 0.00 0.00 0.00 85 1016.4
20260507125107 25 224 6.4 12.9 0.00 0.00 0.00 85 1016.3
20260507124603 25 220 8.0 11.3 0.00 0.00 0.00 85 1016.4
20260507124101 25 214 6.4 11.3 0.00 0.00 0.00 86 1016.3
20260507123559 25 235 4.8 11.3 0.00 0.00 0.00 87 1016.5
20260507123056 25 22 0.0 8.0 0.00 0.00 0.00 86 1016.5
20260507122551 24 219 4.8 9.7 0.00 0.00 0.00 87 1016.6
20260507122047 24 226 4.8 9.7 0.00 0.00 0.00 87 1016.6
20260507121542 25 249 1.6 3.2 0.00 0.00 0.00 86 1016.5
20260507121039 25 221 1.6 3.2 0.00 0.00 0.00 86 1016.2
20260507120535 24 224 1.6 4.8 0.00 0.00 0.00 87 1016.4
20260507120032 24 25 0.0 3.2 0.00 0.00 0.00 88 1016.4
20260507115528 23 299 1.6 4.8 0.00 0.00 0.00 89 1016.5
20260507115024 23 25 0.0 1.6 0.00 0.00 0.00 89 1016.4
20260507114520 22 287 3.2 3.2 0.00 0.00 0.00 91 1016.3
20260507114018 22 299 0.0 3.2 0.00 0.00 0.00 92 1016.1
20260507113515 22 324 0.0 3.2 0.00 0.00 0.00 93 1016.2
20260507113012 22 345 0.0 3.2 0.00 0.00 0.00 94 1016.3
20260507112510 21 325 0.0 3.2 0.00 0.00 0.00 95 1016.3
20260507112006 21 298 3.2 4.8 0.00 0.00 0.00 96 1016.4
20260507111504 21 338 3.2 4.8 0.00 0.00 0.00 97 1016.2
20260507110959 20 334 3.2 4.8 0.00 0.00 0.00 97 1016.3
20260507110456 20 338 3.2 4.8 0.00 0.00 0.00 98 1016.0
20260507105952 20 260 0.0 6.4 0.00 0.00 0.00 98 1015.9
20260507105449 20 318 4.8 6.4 0.00 0.00 0.00 98 1015.9
20260507104946 20 320 4.8 8.0 0.00 0.00 0.00 98 1015.8
20260507104443 20 280 1.6 8.0 0.00 0.00 0.00 98 1015.7
20260507103939 20 309 6.4 8.0 0.00 0.00 0.00 98 1015.3
20260507103436 20 269 3.2 8.0 0.00 0.00 0.00 98 1015.5
20260507102932 20 290 3.2 9.7 0.00 0.00 0.00 98 1015.3
20260507102429 21 347 3.2 4.8 0.00 0.00 0.00 98 1015.1
20260507101925 20 261 8.0 17.7 0.00 0.00 0.00 98 1015.1
20260507101420 20 202 0.0 3.2 0.00 0.00 0.00 98 1014.9
20260507100917 20 220 0.0 6.4 0.00 0.00 0.00 97 1014.9
20260507100415 21 268 3.2 4.8 0.00 0.00 0.00 97 1014.5
20260507095913 21 170 3.2 6.4 0.00 0.00 0.00 97 1014.4
20260507095409 21 99 1.6 3.2 0.00 0.00 0.00 97 1014.4
20260507094907 21 129 3.2 8.0 0.00 0.00 0.00 98 1014.5
20260507094403 20 129 3.2 6.4 0.00 0.00 0.00 99 1014.5
20260507093900 20 138 3.2 3.2 0.00 0.00 0.00 99 1014.6
20260507093358 20 52 0.0 1.6 0.00 0.00 0.00 99 1014.6
20260507092856 20 304 0.0 0.0 0.00 0.00 0.00 99 1014.4
20260507092352 20 41 0.0 1.6 0.00 0.00 0.00 99 1014.6
20260507091849 20 15 0.0 3.2 0.00 0.00 0.00 99 1014.4
20260507091345 20 168 1.6 4.8 0.00 0.00 0.00 99 1014.5
20260507090841 20 188 0.0 1.6 0.00 0.00 0.00 99 1014.5
20260507090337 20 64 0.0 3.2 0.00 0.00 0.00 99 1014.7
20260507085834 20 219 0.0 3.2 0.00 0.00 0.00 99 1014.4
20260507085331 20 210 1.6 3.2 0.00 0.00 0.00 99 1014.6
20260507084829 20 223 0.0 3.2 0.00 0.00 0.00 99 1014.3
20260507084325 20 240 0.0 3.2 0.00 0.00 0.00 99 1014.3
20260507083822 20 32 0.0 3.2 0.00 0.00 0.00 99 1014.5
20260507083319 20 37 0.0 1.6 0.00 0.00 0.00 98 1014.4
20260507082815 20 38 0.0 3.2 0.00 0.00 0.00 99 1014.5
20260507082310 20 230 0.0 3.2 0.00 0.00 0.00 98 1014.3
20260507081808 20 32 0.0 3.2 0.00 0.00 0.00 98 1014.4
20260507081304 20 48 3.2 4.8 0.00 0.00 0.00 98 1014.4
20260507080801 20 343 0.0 3.2 0.00 0.00 0.00 99 1014.5
20260507080257 20 217 0.0 1.6 0.00 0.00 0.00 98 1014.5
20260507075752 20 2 0.0 3.2 0.00 0.00 0.00 98 1014.4
20260507075248 20 36 0.0 1.6 0.00 0.00 0.00 98 1014.4
20260507074745 20 75 0.0 3.2 0.00 0.00 0.00 98 1014.7
20260507074243 20 322 0.0 3.2 0.00 0.00 0.00 97 1014.5
20260507073740 20 157 0.0 1.6 0.00 0.00 0.00 97 1014.4
20260507073236 20 192 0.0 1.6 0.00 0.00 0.00 97 1014.5
20260507072734 21 336 0.0 0.0 0.00 0.00 0.00 96 1014.6
20260507072231 21 250 0.0 1.6 0.00 0.00 0.00 96 1014.8
20260507071729 21 314 0.0 3.2 0.00 0.00 0.00 96 1014.7
20260507071225 21 305 3.2 3.2 0.00 0.00 0.00 96 1014.7
20260507070722 21 272 1.6 3.2 0.00 0.00 0.00 96 1015.0
20260507070219 21 230 0.0 0.0 0.00 0.00 0.00 96 1015.1
20260507065715 21 258 0.0 3.2 0.00 0.00 0.00 95 1015.1
20260507065212 21 242 0.0 3.2 0.00 0.00 0.00 95 1014.7
20260507064709 21 249 1.6 4.8 0.00 0.00 0.00 95 1015.0
20260507064209 21 219 0.0 3.2 0.00 0.00 0.00 94 1015.0
20260507063705 21 244 3.2 6.4 0.00 0.00 0.00 94 1014.9
20260507063202 22 242 1.6 4.8 0.00 0.00 0.00 93 1015.2
20260507062659 22 231 3.2 6.4 0.00 0.00 0.00 93 1015.1
20260507062156 22 243 6.4 6.4 0.00 0.00 0.00 92 1015.2
20260507061654 22 233 1.6 6.4 0.00 0.00 0.00 91 1015.3
20260507061152 22 258 1.6 8.0 0.00 0.00 0.00 91 1015.2
20260507060650 22 251 3.2 4.8 0.00 0.00 0.00 90 1015.4
20260507060146 22 238 3.2 4.8 0.00 0.00 0.00 88 1015.4
20260507055642 23 260 3.2 3.2 0.00 0.00 0.00 87 1015.4
20260507055138 23 258 3.2 3.2 0.00 0.00 0.00 87 1015.7
20260507054634 23 187 0.0 3.2 0.00 0.00 0.00 86 1015.6
20260507054131 23 187 0.0 3.2 0.00 0.00 0.00 85 1015.7
20260507053629 23 222 1.6 3.2 0.00 0.00 0.00 84 1015.7
20260507053127 23 179 4.8 8.0 0.00 0.00 0.00 83 1015.6
20260507052625 23 169 4.8 8.0 0.00 0.00 0.00 83 1015.8
20260507052121 24 188 3.2 6.4 0.00 0.00 0.00 82 1015.8
20260507051619 24 177 6.4 8.0 0.00 0.00 0.00 82 1015.8
20260507051115 24 185 6.4 8.0 0.00 0.00 0.00 82 1015.9
20260507050612 24 149 6.4 12.9 0.00 0.00 0.00 81 1015.8
20260507050109 24 137 4.8 9.7 0.00 0.00 0.00 81 1015.8
20260507045605 24 169 4.8 8.0 0.00 0.00 0.00 81 1016.1
20260507045103 24 133 3.2 6.4 0.00 0.00 0.00 81 1016.1
20260507044559 24 156 4.8 6.4 0.00 0.00 0.00 81 1015.8
20260507044056 24 50 0.0 9.7 0.00 0.00 0.00 81 1016.0
20260507043552 24 86 1.6 8.0 0.00 0.00 0.00 80 1015.9
20260507043049 24 119 0.0 8.0 0.00 0.00 0.00 80 1015.9
20260507042545 24 147 4.8 9.7 0.00 0.00 0.00 80 1016.0
20260507042041 25 143 4.8 9.7 0.00 0.00 0.00 80 1016.0
20260507041538 25 164 4.8 6.4 0.00 0.00 0.00 80 1016.1
20260507041035 25 106 1.6 11.3 0.00 0.00 0.00 80 1016.0
20260507040531 25 160 1.6 8.0 0.00 0.00 0.00 80 1016.1
20260507040027 25 113 3.2 11.3 0.00 0.00 0.00 80 1015.7
20260507035524 25 143 1.6 11.3 0.00 0.00 0.00 80 1015.9
20260507035020 25 137 6.4 11.3 0.00 0.00 0.00 80 1015.6
20260507034517 25 148 6.4 9.7 0.00 0.00 0.00 80 1015.7
20260507034015 25 122 4.8 14.5 0.00 0.00 0.00 81 1016.0
20260507033513 25 150 6.4 8.0 0.00 0.00 0.00 81 1015.9
20260507033010 25 126 4.8 9.7 0.00 0.00 0.00 81 1016.0
20260507032507 25 140 4.8 11.3 0.00 0.00 0.00 81 1016.2
20260507032003 25 150 3.2 11.3 0.00 0.00 0.00 81 1016.2
20260507031459 25 167 0.0 9.7 0.00 0.00 0.00 81 1016.0
20260507030956 25 178 1.6 11.3 0.00 0.00 0.00 81 1015.9
20260507030453 25 183 0.0 6.4 0.00 0.00 0.00 81 1016.0
20260507025950 25 127 4.8 8.0 0.00 0.00 0.00 81 1015.9
20260507025447 25 126 1.6 11.3 0.00 0.00 0.00 81 1015.9
20260507024945 25 122 3.2 8.0 0.00 0.00 0.00 82 1016.2
20260507024442 25 101 4.8 8.0 0.00 0.00 0.00 83 1016.2
20260507023938 25 92 3.2 8.0 0.00 0.00 0.00 83 1015.9
20260507023435 25 76 3.2 11.3 0.00 0.00 0.00 83 1016.1
20260507022932 25 99 4.8 9.7 0.00 0.00 0.00 82 1016.1
20260507022429 25 133 3.2 8.0 0.00 0.00 0.00 82 1016.4
20260507021925 25 113 4.8 14.5 0.00 0.00 0.00 82 1016.2
20260507021420 25 110 3.2 9.7 0.00 0.00 0.00 82 1016.2
20260507020918 25 102 4.8 14.5 0.00 0.00 0.00 82 1016.3
20260507020415 25 154 3.2 11.3 0.00 0.00 0.00 82 1016.0
20260507015912 25 108 6.4 9.7 0.00 0.00 0.00 81 1016.2
20260507015410 25 99 4.8 11.3 0.00 0.00 0.00 81 1016.1
20260507014907 25 115 4.8 8.0 0.00 0.00 0.00 80 1016.2
20260507014403 25 108 4.8 6.4 0.00 0.00 0.00 80 1016.1
20260507013859 25 120 0.0 11.3 0.00 0.00 0.00 80 1016.3
20260507013356 25 119 3.2 4.8 0.00 0.00 0.00 80 1016.0
20260507012854 25 104 4.8 4.8 0.00 0.00 0.00 79 1016.3
20260507012349 25 87 1.6 6.4 0.00 0.00 0.00 79 1016.0
20260507011841 25 120 0.0 8.0 0.00 0.00 0.00 79 1016.0
20260507011338 25 116 0.0 4.8 0.00 0.00 0.00 78 1016.1
20260507010832 25 100 3.2 6.4 0.00 0.00 0.00 78 1016.0
20260507010328 25 120 6.4 8.0 0.00 0.00 0.00 78 1016.0
20260507005825 25 105 4.8 8.0 0.00 0.00 0.00 78 1016.1
20260507005322 25 112 3.2 4.8 0.00 0.00 0.00 77 1016.1
20260507004819 25 44 0.0 4.8 0.00 0.00 0.00 77 1016.0
20260507004316 25 141 3.2 11.3 0.00 0.00 0.00 76 1015.8
20260507003813 25 112 3.2 8.0 0.00 0.00 0.00 75 1016.0
20260507003308 25 112 4.8 11.3 0.00 0.00 0.00 74 1015.9
20260507002803 25 96 3.2 9.7 0.00 0.00 0.00 74 1015.8
20260507002300 25 97 1.6 6.4 0.00 0.00 0.00 73 1015.8
20260507001757 25 121 3.2 8.0 0.00 0.00 0.00 72 1015.9
20260507001255 25 133 3.2 9.7 0.00 0.00 0.00 73 1015.8
20260507000751 25 110 6.4 9.7 0.00 0.00 0.00 73 1016.0
20260507000246 25 114 4.8 8.0 0.00 0.00 0.00 73 1015.6
20260506235743 26 145 1.6 9.7 0.00 0.00 0.00 72 1015.8
20260506235238 26 89 1.6 8.0 0.00 0.00 0.00 72 1015.7
20260506234736 26 160 1.6 8.0 0.00 0.00 0.00 71 1015.5
20260506234233 26 138 3.2 9.7 0.00 0.00 0.00 71 1015.8
20260506233731 26 148 3.2 14.5 0.00 0.00 0.00 69 1015.5
20260506233227 26 100 4.8 9.7 0.00 0.00 0.00 68 1015.7
20260506232724 26 95 4.8 16.1 0.00 0.00 0.00 67 1015.8
20260506232218 27 76 3.2 8.0 0.00 0.00 0.00 69 1015.8
20260506231716 27 119 3.2 14.5 0.00 0.00 0.00 68 1015.8
20260506231214 27 99 6.4 11.3 0.00 0.00 0.00 67 1015.8
20260506230710 27 140 3.2 11.3 0.00 0.00 0.00 68 1015.8
20260506230208 27 110 6.4 14.5 0.00 0.00 0.00 66 1016.0
20260506225704 27 114 8.0 17.7 0.00 0.00 0.00 66 1016.0
20260506225201 27 150 8.0 16.1 0.00 0.00 0.00 67 1015.8
20260506224657 27 110 8.0 12.9 0.00 0.00 0.00 66 1016.0
20260506224154 27 126 8.0 12.9 0.00 0.00 0.00 66 1015.7
20260506223651 27 78 0.0 12.9 0.00 0.00 0.00 66 1015.8
20260506223146 27 114 8.0 17.7 0.00 0.00 0.00 65 1015.9
20260506222644 27 113 3.2 8.0 0.00 0.00 0.00 66 1015.9
20260506222139 27 105 6.4 14.5 0.00 0.00 0.00 66 1015.6
20260506221638 27 103 12.9 20.9 0.00 0.00 0.00 66 1015.7
20260506221136 27 94 9.7 17.7 0.00 0.00 0.00 67 1015.6
20260506220632 27 103 8.0 20.9 0.00 0.00 0.00 66 1015.6
20260506220127 27 106 14.5 17.7 0.00 0.00 0.00 66 1015.9
20260506215624 27 126 8.0 19.3 0.00 0.00 0.00 66 1015.7
20260506215119 28 99 14.5 19.3 0.00 0.00 0.00 64 1015.8
20260506214616 28 81 3.2 16.1 0.00 0.00 0.00 65 1015.7
20260506214114 28 115 6.4 12.9 0.00 0.00 0.00 64 1015.4
20260506213612 28 92 4.8 25.7 0.00 0.00 0.00 66 1015.6
20260506213109 28 81 9.7 19.3 0.00 0.00 0.00 63 1015.8
20260506212606 28 100 16.1 22.5 0.00 0.00 0.00 63 1015.5
20260506212101 28 109 8.0 16.1 0.00 0.00 0.00 65 1015.7
20260506211557 28 94 8.0 24.1 0.00 0.00 0.00 64 1015.7
20260506211054 28 126 3.2 17.7 0.00 0.00 0.00 64 1015.7
20260506210550 28 108 6.4 17.7 0.00 0.00 0.00 65 1015.9
20260506210047 28 99 14.5 17.7 0.00 0.00 0.00 63 1015.6
20260506205544 28 91 3.2 16.1 0.00 0.00 0.00 66 1015.7
20260506205039 28 123 6.4 19.3 0.00 0.00 0.00 64 1015.7
20260506204537 28 92 4.8 17.7 0.00 0.00 0.00 66 1015.7
20260506204034 28 102 9.7 22.5 0.00 0.00 0.00 64 1015.6
20260506203533 28 106 4.8 14.5 0.00 0.00 0.00 64 1015.7
20260506203029 28 129 8.0 16.1 0.00 0.00 0.00 64 1015.7
20260506202526 28 108 4.8 16.1 0.00 0.00 0.00 64 1015.7
20260506202022 28 69 24.1 24.1 0.00 0.00 0.00 65 1015.8
20260506201520 28 136 9.7 17.7 0.00 0.00 0.00 66 1015.9
20260506201016 29 131 4.8 16.1 0.00 0.00 0.00 65 1015.8
20260506200513 29 109 8.0 20.9 0.00 0.00 0.00 64 1016.0